| time (UTC) | temp F | wind direction | speed MPH | gust MPH | rain 1hr in | rain 24hr in | rain mn in | humidity % | barometer mb |
| 20260901121017 | 77 | 99 | 5.0 | 6.0 | 0.00 | 0.00 | 0.00 | 72 | 1016.9 |
| 20260901120517 | 77 | 81 | 5.0 | 6.0 | 0.00 | 0.00 | 0.00 | 72 | 1016.9 |
| 20260901120016 | 78 | 73 | 5.0 | 5.0 | 0.00 | 0.00 | 0.00 | 69 | 1016.9 |
| 20260901115017 | 78 | 130 | 4.0 | 6.0 | 0.00 | 0.00 | 0.00 | 69 | 1016.8 |
| 20260901114016 | 78 | 251 | 6.0 | 7.0 | 0.00 | 0.00 | 0.00 | 69 | 1016.6 |
| 20260901113516 | 78 | 255 | 6.0 | 7.0 | 0.00 | 0.00 | 0.00 | 70 | 1016.6 |
| 20260901113016 | 78 | 252 | 5.0 | 7.0 | 0.00 | 0.00 | 0.00 | 70 | 1016.5 |
| 20260901112516 | 78 | 240 | 6.0 | 9.0 | 0.00 | 0.00 | 0.00 | 71 | 1016.5 |
| 20260901112016 | 78 | 241 | 5.0 | 9.0 | 0.00 | 0.00 | 0.00 | 70 | 1016.5 |
| 20260901111516 | 78 | 248 | 7.0 | 9.0 | 0.00 | 0.00 | 0.00 | 70 | 1016.4 |
| 20260901110516 | 79 | 247 | 8.0 | 8.0 | 0.00 | 0.00 | 0.00 | 69 | 1016.5 |
| 20260901105516 | 79 | 241 | 5.0 | 7.0 | 0.00 | 0.00 | 0.00 | 68 | 1016.5 |
| 20260901105016 | 80 | 255 | 6.0 | 7.0 | 0.00 | 0.00 | 0.00 | 67 | 1016.5 |
| 20260901104516 | 80 | 256 | 6.0 | 7.0 | 0.00 | 0.00 | 0.00 | 67 | 1016.5 |
| 20260901104016 | 80 | 257 | 6.0 | 7.0 | 0.00 | 0.00 | 0.00 | 66 | 1016.5 |
| 20260901103515 | 80 | 247 | 6.0 | 7.0 | 0.00 | 0.00 | 0.00 | 66 | 1016.5 |
| 20260901103016 | 80 | 244 | 6.0 | 6.0 | 0.00 | 0.00 | 0.00 | 65 | 1016.4 |
| 20260901102515 | 80 | 234 | 6.0 | 7.0 | 0.00 | 0.00 | 0.00 | 64 | 1016.5 |
| 20260901102015 | 80 | 212 | 6.0 | 7.0 | 0.00 | 0.00 | 0.00 | 64 | 1016.5 |
| 20260901101515 | 80 | 210 | 7.0 | 7.0 | 0.00 | 0.00 | 0.00 | 63 | 1016.5 |
| 20260901101015 | 80 | 206 | 6.0 | 7.0 | 0.00 | 0.00 | 0.00 | 63 | 1016.5 |
| 20260901100515 | 80 | 205 | 6.0 | 6.0 | 0.00 | 0.00 | 0.00 | 63 | 1016.5 |
| 20260901095515 | 80 | 199 | 5.0 | 6.0 | 0.00 | 0.00 | 0.00 | 63 | 1016.5 |
| 20260901095015 | 80 | 193 | 5.0 | 7.0 | 0.00 | 0.00 | 0.00 | 62 | 1016.5 |
| 20260901094515 | 80 | 178 | 6.0 | 7.0 | 0.00 | 0.00 | 0.00 | 62 | 1016.5 |
| 20260901094015 | 80 | 197 | 5.0 | 5.0 | 0.00 | 0.00 | 0.00 | 62 | 1016.6 |
| 20260901093515 | 80 | 177 | 4.0 | 6.0 | 0.00 | 0.00 | 0.00 | 63 | 1016.6 |
| 20260901092515 | 80 | 170 | 6.0 | 7.0 | 0.00 | 0.00 | 0.00 | 62 | 1016.6 |
| 20260901092015 | 80 | 151 | 5.0 | 7.0 | 0.00 | 0.00 | 0.00 | 62 | 1016.6 |
| 20260901091514 | 80 | 166 | 6.0 | 8.0 | 0.00 | 0.00 | 0.00 | 61 | 1016.6 |
| 20260901091014 | 81 | 143 | 5.0 | 9.0 | 0.00 | 0.00 | 0.00 | 61 | 1016.5 |
| 20260901085514 | 81 | 143 | 7.0 | 9.0 | 0.00 | 0.00 | 0.00 | 60 | 1016.5 |
| 20260901085015 | 81 | 144 | 7.0 | 8.0 | 0.00 | 0.00 | 0.00 | 60 | 1016.5 |
| 20260901084514 | 81 | 133 | 6.0 | 7.0 | 0.00 | 0.00 | 0.00 | 60 | 1016.4 |
| 20260901084014 | 81 | 144 | 7.0 | 8.0 | 0.00 | 0.00 | 0.00 | 59 | 1016.4 |
| 20260901083515 | 81 | 137 | 5.0 | 8.0 | 0.00 | 0.00 | 0.00 | 59 | 1016.4 |
| 20260901083014 | 81 | 140 | 7.0 | 7.0 | 0.00 | 0.00 | 0.00 | 59 | 1016.4 |
| 20260901082515 | 81 | 129 | 6.0 | 8.0 | 0.00 | 0.00 | 0.00 | 59 | 1016.3 |
| 20260901082015 | 81 | 136 | 7.0 | 8.0 | 0.00 | 0.00 | 0.00 | 59 | 1016.2 |
| 20260901081514 | 82 | 129 | 7.0 | 8.0 | 0.00 | 0.00 | 0.00 | 59 | 1016.2 |
| 20260901081014 | 82 | 129 | 8.0 | 8.0 | 0.00 | 0.00 | 0.00 | 58 | 1016.1 |
| 20260901080514 | 82 | 123 | 6.0 | 7.0 | 0.00 | 0.00 | 0.00 | 58 | 1016.1 |
| 20260901080014 | 82 | 119 | 6.0 | 7.0 | 0.00 | 0.00 | 0.00 | 58 | 1016.1 |
| 20260901075514 | 82 | 125 | 7.0 | 7.0 | 0.00 | 0.00 | 0.00 | 58 | 1016.1 |
| 20260901075015 | 81 | 115 | 5.0 | 7.0 | 0.00 | 0.00 | 0.00 | 58 | 1016.1 |
| 20260901074014 | 80 | 78 | 4.0 | 5.0 | 0.00 | 0.00 | 0.00 | 58 | 1016.1 |
| 20260901073514 | 81 | 71 | 4.0 | 7.0 | 0.00 | 0.00 | 0.00 | 57 | 1016.1 |
| 20260901072013 | 82 | 101 | 5.0 | 6.0 | 0.00 | 0.00 | 0.00 | 56 | 1016.2 |
| 20260901071514 | 81 | 96 | 5.0 | 6.0 | 0.00 | 0.00 | 0.00 | 57 | 1016.2 |
| 20260901070513 | 81 | 84 | 5.0 | 7.0 | 0.00 | 0.00 | 0.00 | 56 | 1016.1 |
| 20260901070013 | 81 | 81 | 6.0 | 7.0 | 0.00 | 0.00 | 0.00 | 55 | 1016.1 |
| 20260901065513 | 82 | 79 | 5.0 | 8.0 | 0.00 | 0.00 | 0.00 | 54 | 1016.1 |
| 20260901064513 | 82 | 95 | 6.0 | 7.0 | 0.00 | 0.00 | 0.00 | 53 | 1016.0 |
| 20260901064013 | 83 | 105 | 5.0 | 6.0 | 0.00 | 0.00 | 0.00 | 52 | 1016.0 |
| 20260901063514 | 83 | 103 | 5.0 | 5.0 | 0.00 | 0.00 | 0.00 | 53 | 1016.0 |
| 20260901063013 | 82 | 102 | 5.0 | 8.0 | 0.00 | 0.00 | 0.00 | 53 | 1016.0 |
| 20260901062514 | 81 | 76 | 3.0 | 10.0 | 0.00 | 0.00 | 0.00 | 53 | 1016.0 |
| 20260901062014 | 82 | 56 | 6.0 | 10.0 | 0.00 | 0.00 | 0.00 | 52 | 1016.1 |
| 20260901061013 | 83 | 35 | 5.0 | 6.0 | 0.00 | 0.00 | 0.00 | 49 | 1015.8 |
| 20260901060513 | 83 | 29 | 5.0 | 6.0 | 0.00 | 0.00 | 0.00 | 48 | 1015.7 |
| 20260901060013 | 83 | 33 | 5.0 | 6.0 | 0.00 | 0.00 | 0.00 | 48 | 1015.7 |
| 20260901055513 | 83 | 37 | 5.0 | 7.0 | 0.00 | 0.00 | 0.00 | 47 | 1015.7 |
| 20260901055013 | 83 | 36 | 5.0 | 12.0 | 0.00 | 0.00 | 0.00 | 48 | 1015.7 |
| 20260901054513 | 83 | 62 | 7.0 | 12.0 | 0.00 | 0.00 | 0.00 | 47 | 1015.7 |
| 20260901054013 | 85 | 74 | 8.0 | 8.0 | 0.00 | 0.00 | 0.00 | 45 | 1015.6 |
| 20260901053513 | 86 | 200 | 3.0 | 4.0 | 0.00 | 0.00 | 0.00 | 44 | 1015.5 |
| 20260901053013 | 86 | 191 | 3.0 | 4.0 | 0.00 | 0.00 | 0.00 | 44 | 1015.4 |
| 20260901052513 | 86 | 183 | 4.0 | 4.0 | 0.00 | 0.00 | 0.00 | 43 | 1015.4 |
| 20260901052013 | 86 | 180 | 4.0 | 5.0 | 0.00 | 0.00 | 0.00 | 43 | 1015.3 |
| 20260901051513 | 86 | 185 | 4.0 | 5.0 | 0.00 | 0.00 | 0.00 | 43 | 1015.3 |
| 20260901051013 | 86 | 164 | 5.0 | 6.0 | 0.00 | 0.00 | 0.00 | 43 | 1015.3 |
| 20260901050513 | 86 | 163 | 5.0 | 6.0 | 0.00 | 0.00 | 0.00 | 42 | 1015.3 |
| 20260901050013 | 86 | 169 | 5.0 | 7.0 | 0.00 | 0.00 | 0.00 | 42 | 1015.3 |
| 20260901045513 | 87 | 165 | 6.0 | 7.0 | 0.00 | 0.00 | 0.00 | 42 | 1015.3 |
| 20260901045013 | 87 | 164 | 6.0 | 7.0 | 0.00 | 0.00 | 0.00 | 42 | 1015.3 |
| 20260901044012 | 87 | 164 | 6.0 | 7.0 | 0.00 | 0.00 | 0.00 | 42 | 1015.2 |
| 20260901043513 | 87 | 145 | 6.0 | 6.0 | 0.00 | 0.00 | 0.00 | 42 | 1015.1 |
| 20260901043012 | 87 | 135 | 5.0 | 6.0 | 0.00 | 0.00 | 0.00 | 42 | 1015.1 |
| 20260901042512 | 87 | 140 | 5.0 | 5.0 | 0.00 | 0.00 | 0.00 | 42 | 1015.1 |
| 20260901042012 | 86 | 126 | 4.0 | 5.0 | 0.00 | 0.00 | 0.00 | 42 | 1015.1 |
| 20260901041512 | 86 | 117 | 4.0 | 4.0 | 0.00 | 0.00 | 0.00 | 43 | 1015.2 |
| 20260901040512 | 85 | 86 | 3.0 | 4.0 | 0.00 | 0.00 | 0.00 | 44 | 1015.3 |
| 20260901040013 | 86 | 45 | 3.0 | 4.0 | 0.00 | 0.00 | 0.00 | 44 | 1015.3 |
| 20260901035513 | 86 | 93 | 3.0 | 4.0 | 0.00 | 0.00 | 0.00 | 43 | 1015.3 |
| 20260901035013 | 85 | 91 | 4.0 | 5.0 | 0.00 | 0.00 | 0.00 | 43 | 1015.3 |
| 20260901033512 | 88 | 119 | 4.0 | 5.0 | 0.00 | 0.00 | 0.00 | 40 | 1015.2 |
| 20260901033013 | 88 | 152 | 5.0 | 5.0 | 0.00 | 0.00 | 0.00 | 40 | 1015.2 |
| 20260901032512 | 89 | 162 | 4.0 | 5.0 | 0.00 | 0.00 | 0.00 | 40 | 1015.2 |
| 20260901032013 | 89 | 167 | 4.0 | 5.0 | 0.00 | 0.00 | 0.00 | 40 | 1015.1 |
| 20260901031012 | 89 | 182 | 4.0 | 4.0 | 0.00 | 0.00 | 0.00 | 39 | 1015.1 |
| 20260901030512 | 89 | 176 | 3.0 | 4.0 | 0.00 | 0.00 | 0.00 | 39 | 1015.1 |
| 20260901030013 | 89 | 190 | 4.0 | 4.0 | 0.00 | 0.00 | 0.00 | 40 | 1015.0 |
| 20260901025513 | 88 | 199 | 4.0 | 4.0 | 0.00 | 0.00 | 0.00 | 40 | 1015.0 |
| 20260901025013 | 88 | 206 | 4.0 | 4.0 | 0.00 | 0.00 | 0.00 | 40 | 1014.9 |
| 20260901024512 | 88 | 193 | 3.0 | 5.0 | 0.00 | 0.00 | 0.00 | 40 | 1014.9 |
| 20260901023512 | 90 | 211 | 5.0 | 7.0 | 0.00 | 0.00 | 0.00 | 38 | 1014.8 |
| 20260901023012 | 90 | 157 | 5.0 | 6.0 | 0.00 | 0.00 | 0.00 | 37 | 1014.7 |
| 20260901022512 | 90 | 144 | 5.0 | 7.0 | 0.00 | 0.00 | 0.00 | 37 | 1014.6 |
| 20260901022012 | 90 | 133 | 6.0 | 7.0 | 0.00 | 0.00 | 0.00 | 37 | 1014.6 |
| 20260901021012 | 90 | 133 | 5.0 | 6.0 | 0.00 | 0.00 | 0.00 | 37 | 1014.5 |
| 20260901020514 | 90 | 123 | 5.0 | 5.0 | 0.00 | 0.00 | 0.00 | 37 | 1014.5 |
| 20260901015512 | 89 | 123 | 5.0 | 7.0 | 0.00 | 0.00 | 0.00 | 38 | 1014.3 |
| 20260901015013 | 90 | 110 | 5.0 | 7.0 | 0.00 | 0.00 | 0.00 | 38 | 1014.3 |
| 20260901014011 | 90 | 131 | 6.0 | 7.0 | 0.00 | 0.00 | 0.00 | 37 | 1014.2 |
| 20260901013513 | 91 | 133 | 5.0 | 6.0 | 0.00 | 0.00 | 0.00 | 37 | 1014.1 |
| 20260901013011 | 91 | 140 | 6.0 | 6.0 | 0.00 | 0.00 | 0.00 | 37 | 1014.1 |
| 20260901012512 | 91 | 122 | 5.0 | 6.0 | 0.00 | 0.00 | 0.00 | 37 | 1014.1 |
| 20260901011011 | 92 | 131 | 5.0 | 7.0 | 0.00 | 0.00 | 0.00 | 35 | 1014.0 |
| 20260901010511 | 92 | 137 | 7.0 | 8.0 | 0.00 | 0.00 | 0.00 | 35 | 1014.0 |
| 20260901005511 | 93 | 130 | 6.0 | 7.0 | 0.00 | 0.00 | 0.00 | 34 | 1014.0 |
| 20260901004511 | 94 | 137 | 6.0 | 9.0 | 0.00 | 0.00 | 0.00 | 33 | 1014.0 |
| 20260901004011 | 94 | 141 | 5.0 | 8.0 | 0.00 | 0.00 | 0.00 | 33 | 1013.9 |
| 20260901003013 | 95 | 152 | 8.0 | 11.0 | 0.00 | 0.00 | 0.00 | 32 | 1013.9 |
| 20260901002512 | 95 | 145 | 8.0 | 11.0 | 0.00 | 0.00 | 0.00 | 32 | 1013.9 |
| 20260901001511 | 95 | 139 | 9.0 | 16.0 | 0.00 | 0.00 | 0.00 | 32 | 1013.9 |
| 20260901001011 | 96 | 135 | 13.0 | 16.0 | 0.00 | 0.00 | 0.00 | 32 | 1013.8 |
| 20260901000510 | 96 | 142 | 9.0 | 13.0 | 0.00 | 0.00 | 0.00 | 32 | 1013.9 |
| 20260901000011 | 96 | 145 | 9.0 | 14.0 | 0.00 | 0.00 | 0.00 | 32 | 1013.8 |
| 20260831235510 | 96 | 144 | 11.0 | 14.0 | 0.00 | 0.00 | 0.00 | 31 | 1013.7 |
| 20260831235010 | 96 | 174 | 11.0 | 15.0 | 0.00 | 0.00 | 0.00 | 31 | 1013.8 |
| 20260831234540 | 96 | 144 | 12.0 | 15.0 | 0.00 | 0.00 | 0.00 | 31 | 1013.8 |
| 20260831233510 | 96 | 201 | 9.0 | 15.0 | 0.00 | 0.00 | 0.00 | 30 | 1013.9 |
| 20260831233010 | 97 | 170 | 10.0 | 15.0 | 0.00 | 0.00 | 0.00 | 30 | 1013.8 |
| 20260831232540 | 97 | 164 | 15.0 | 16.0 | 0.00 | 0.00 | 0.00 | 30 | 1013.7 |
| 20260831231510 | 97 | 168 | 15.0 | 17.0 | 0.00 | 0.00 | 0.00 | 30 | 1013.7 |
| 20260831231010 | 98 | 154 | 14.0 | 17.0 | 0.00 | 0.00 | 0.00 | 30 | 1013.7 |
| 20260831230510 | 98 | 163 | 11.0 | 14.0 | 0.00 | 0.00 | 0.00 | 29 | 1013.8 |
| 20260831230010 | 98 | 155 | 8.0 | 16.0 | 0.00 | 0.00 | 0.00 | 30 | 1013.8 |
| 20260831225510 | 98 | 184 | 9.0 | 16.0 | 0.00 | 0.00 | 0.00 | 30 | 1013.9 |
| 20260831225009 | 97 | 182 | 7.0 | 11.0 | 0.00 | 0.00 | 0.00 | 30 | 1013.9 |
| 20260831224510 | 97 | 208 | 9.0 | 16.0 | 0.00 | 0.00 | 0.00 | 30 | 1014.0 |
| 20260831224009 | 97 | 191 | 11.0 | 17.0 | 0.00 | 0.00 | 0.00 | 30 | 1014.0 |
| 20260831223510 | 98 | 195 | 15.0 | 17.0 | 0.00 | 0.00 | 0.00 | 29 | 1014.0 |
| 20260831223009 | 97 | 156 | 9.0 | 17.0 | 0.00 | 0.00 | 0.00 | 30 | 1014.1 |
| 20260831222509 | 98 | 134 | 15.0 | 15.0 | 0.00 | 0.00 | 0.00 | 29 | 1014.0 |
| 20260831222009 | 98 | 176 | 5.0 | 13.0 | 0.00 | 0.00 | 0.00 | 28 | 1014.1 |
| 20260831221509 | 98 | 191 | 13.0 | 19.0 | 0.00 | 0.00 | 0.00 | 28 | 1014.1 |
| 20260831221009 | 98 | 151 | 11.0 | 19.0 | 0.00 | 0.00 | 0.00 | 29 | 1014.2 |
| 20260831220509 | 99 | 151 | 14.0 | 15.0 | 0.00 | 0.00 | 0.00 | 30 | 1014.2 |
| 20260831220009 | 99 | 183 | 12.0 | 15.0 | 0.00 | 0.00 | 0.00 | 29 | 1014.2 |
| 20260831215509 | 98 | 135 | 11.0 | 16.0 | 0.00 | 0.00 | 0.00 | 29 | 1014.2 |
| 20260831215009 | 98 | 165 | 7.0 | 16.0 | 0.00 | 0.00 | 0.00 | 29 | 1014.3 |
| 20260831214509 | 98 | 163 | 12.0 | 20.0 | 0.00 | 0.00 | 0.00 | 28 | 1014.4 |
| 20260831213509 | 97 | 134 | 7.0 | 16.0 | 0.00 | 0.00 | 0.00 | 31 | 1014.4 |
| 20260831213008 | 98 | 171 | 11.0 | 17.0 | 0.00 | 0.00 | 0.00 | 29 | 1014.5 |
| 20260831212009 | 98 | 129 | 11.0 | 20.0 | 0.00 | 0.00 | 0.00 | 28 | 1014.6 |
| 20260831211508 | 98 | 178 | 11.0 | 20.0 | 0.00 | 0.00 | 0.00 | 28 | 1014.5 |
| 20260831211008 | 98 | 164 | 13.0 | 17.0 | 0.00 | 0.00 | 0.00 | 29 | 1014.6 |
| 20260831210508 | 98 | 122 | 15.0 | 17.0 | 0.00 | 0.00 | 0.00 | 27 | 1014.6 |
| 20260831205508 | 98 | 210 | 11.0 | 16.0 | 0.00 | 0.00 | 0.00 | 28 | 1014.8 |
| 20260831205008 | 98 | 208 | 10.0 | 18.0 | 0.00 | 0.00 | 0.00 | 28 | 1015.0 |
| 20260831204508 | 98 | 177 | 10.0 | 21.0 | 0.00 | 0.00 | 0.00 | 27 | 1015.0 |
| 20260831204008 | 98 | 154 | 18.0 | 21.0 | 0.00 | 0.00 | 0.00 | 29 | 1014.9 |
| 20260831203008 | 96 | 166 | 11.0 | 18.0 | 0.00 | 0.00 | 0.00 | 30 | 1015.2 |
| 20260831202508 | 96 | 152 | 15.0 | 18.0 | 0.00 | 0.00 | 0.00 | 31 | 1015.3 |
| 20260831201507 | 96 | 156 | 13.0 | 19.0 | 0.00 | 0.00 | 0.00 | 32 | 1015.4 |
| 20260831201007 | 95 | 124 | 13.0 | 21.0 | 0.00 | 0.00 | 0.00 | 32 | 1015.4 |
| 20260831200508 | 96 | 166 | 13.0 | 21.0 | 0.00 | 0.00 | 0.00 | 32 | 1015.4 |
| 20260831200007 | 96 | 175 | 12.0 | 21.0 | 0.00 | 0.00 | 0.00 | 31 | 1015.4 |
| 20260831195007 | 98 | 197 | 12.0 | 20.0 | 0.00 | 0.00 | 0.00 | 31 | 1015.5 |
| 20260831194507 | 96 | 162 | 9.0 | 15.0 | 0.00 | 0.00 | 0.00 | 31 | 1015.6 |
| 20260831193507 | 96 | 117 | 13.0 | 20.0 | 0.00 | 0.00 | 0.00 | 33 | 1015.8 |
| 20260831193007 | 95 | 128 | 10.0 | 20.0 | 0.00 | 0.00 | 0.00 | 32 | 1015.8 |
| 20260831192507 | 95 | 133 | 15.0 | 18.0 | 0.00 | 0.00 | 0.00 | 32 | 1015.8 |
| 20260831192007 | 96 | 176 | 13.0 | 16.0 | 0.00 | 0.00 | 0.00 | 34 | 1015.8 |
| 20260831191508 | 97 | 157 | 15.0 | 20.0 | 0.00 | 0.00 | 0.00 | 33 | 1015.8 |
| 20260831191007 | 96 | 170 | 10.0 | 20.0 | 0.00 | 0.00 | 0.00 | 33 | 1016.0 |
| 20260831190507 | 95 | 194 | 5.0 | 20.0 | 0.00 | 0.00 | 0.00 | 33 | 1016.1 |
| 20260831190007 | 95 | 138 | 20.0 | 20.0 | 0.00 | 0.00 | 0.00 | 33 | 1015.9 |
| 20260831185507 | 95 | 149 | 7.0 | 18.0 | 0.00 | 0.00 | 0.00 | 33 | 1016.1 |
| 20260831185006 | 96 | 217 | 11.0 | 18.0 | 0.00 | 0.00 | 0.00 | 32 | 1016.2 |
| 20260831184006 | 96 | 143 | 13.0 | 20.0 | 0.00 | 0.00 | 0.00 | 34 | 1016.3 |
| 20260831183536 | 94 | 165 | 8.0 | 20.0 | 0.00 | 0.00 | 0.00 | 33 | 1016.4 |
| 20260831183006 | 96 | 130 | 11.0 | 19.0 | 0.00 | 0.00 | 0.00 | 33 | 1016.3 |
| 20260831182506 | 95 | 187 | 10.0 | 17.0 | 0.00 | 0.00 | 0.00 | 34 | 1016.5 |
| 20260831182006 | 95 | 174 | 9.0 | 17.0 | 0.00 | 0.00 | 0.00 | 34 | 1016.6 |
| 20260831181508 | 96 | 178 | 14.0 | 22.0 | 0.00 | 0.00 | 0.00 | 32 | 1016.6 |
| 20260831181007 | 96 | 152 | 11.0 | 22.0 | 0.00 | 0.00 | 0.00 | 33 | 1016.7 |
| 20260831180506 | 95 | 179 | 10.0 | 18.0 | 0.00 | 0.00 | 0.00 | 34 | 1016.8 |
| 20260831180006 | 95 | 212 | 17.0 | 18.0 | 0.00 | 0.00 | 0.00 | 34 | 1016.9 |
| 20260831175506 | 96 | 164 | 11.0 | 20.0 | 0.00 | 0.00 | 0.00 | 33 | 1016.9 |
| 20260831174506 | 95 | 179 | 11.0 | 18.0 | 0.00 | 0.00 | 0.00 | 34 | 1017.1 |
| 20260831174006 | 95 | 197 | 10.0 | 18.0 | 0.00 | 0.00 | 0.00 | 35 | 1017.1 |
| 20260831173507 | 95 | 171 | 13.0 | 19.0 | 0.00 | 0.00 | 0.00 | 35 | 1017.1 |
| 20260831173006 | 95 | 187 | 9.0 | 19.0 | 0.00 | 0.00 | 0.00 | 35 | 1017.3 |
| 20260831172506 | 95 | 202 | 16.0 | 18.0 | 0.00 | 0.00 | 0.00 | 35 | 1017.2 |
| 20260831172006 | 94 | 176 | 16.0 | 18.0 | 0.00 | 0.00 | 0.00 | 35 | 1017.2 |
| 20260831171505 | 94 | 195 | 7.0 | 18.0 | 0.00 | 0.00 | 0.00 | 35 | 1017.4 |
| 20260831171006 | 95 | 170 | 9.0 | 18.0 | 0.00 | 0.00 | 0.00 | 35 | 1017.4 |
| 20260831170506 | 94 | 196 | 5.0 | 16.0 | 0.00 | 0.00 | 0.00 | 36 | 1017.4 |
| 20260831165505 | 94 | 189 | 9.0 | 16.0 | 0.00 | 0.00 | 0.00 | 36 | 1017.4 |
| 20260831164505 | 94 | 194 | 9.0 | 18.0 | 0.00 | 0.00 | 0.00 | 37 | 1017.5 |
| 20260831164005 | 93 | 223 | 14.0 | 18.0 | 0.00 | 0.00 | 0.00 | 37 | 1017.5 |
| 20260831163505 | 93 | 160 | 12.0 | 18.0 | 0.00 | 0.00 | 0.00 | 38 | 1017.5 |
| 20260831163005 | 94 | 216 | 13.0 | 20.0 | 0.00 | 0.00 | 0.00 | 37 | 1017.5 |
| 20260831162507 | 93 | 224 | 13.0 | 20.0 | 0.00 | 0.00 | 0.00 | 38 | 1017.5 |
| 20260831162005 | 93 | 182 | 12.0 | 18.0 | 0.00 | 0.00 | 0.00 | 38 | 1017.5 |
| 20260831161506 | 92 | 194 | 14.0 | 15.0 | 0.00 | 0.00 | 0.00 | 38 | 1017.5 |
| 20260831153510 | 90 | 194 | 11.0 | 16.0 | 0.00 | 0.00 | 0.00 | 43 | 1017.5 |
| 20260831152531 | 90 | 190 | 9.0 | 18.0 | 0.00 | 0.00 | 0.00 | 43 | 1017.5 |
| 20260831152037 | 89 | 199 | 9.0 | 18.0 | 0.00 | 0.00 | 0.00 | 45 | 1017.5 |
| 20260831151531 | 89 | 219 | 12.0 | 17.0 | 0.00 | 0.00 | 0.00 | 44 | 1017.5 |
| 20260831150002 | 88 | 214 | 12.0 | 15.0 | 0.00 | 0.00 | 0.00 | 48 | 1017.5 |
| 20260831145531 | 87 | 210 | 13.0 | 17.0 | 0.00 | 0.00 | 0.00 | 49 | 1017.5 |
| 20260831145003 | 87 | 199 | 12.0 | 17.0 | 0.00 | 0.00 | 0.00 | 52 | 1017.5 |
| 20260831144501 | 86 | 202 | 8.0 | 17.0 | 0.00 | 0.00 | 0.00 | 54 | 1017.5 |
| 20260831144001 | 86 | 213 | 17.0 | 17.0 | 0.00 | 0.00 | 0.00 | 55 | 1017.5 |
| 20260831143010 | 86 | 207 | 9.0 | 15.0 | 0.00 | 0.00 | 0.00 | 56 | 1017.5 |
| 20260831142501 | 85 | 224 | 15.0 | 16.0 | 0.00 | 0.00 | 0.00 | 56 | 1017.5 |
| 20260831142003 | 86 | 229 | 15.0 | 16.0 | 0.00 | 0.00 | 0.00 | 56 | 1017.4 |
| 20260831141501 | 85 | 206 | 11.0 | 15.0 | 0.00 | 0.00 | 0.00 | 58 | 1017.4 |
| 20260831141001 | 85 | 201 | 12.0 | 15.0 | 0.00 | 0.00 | 0.00 | 58 | 1017.4 |
| 20260831140501 | 85 | 191 | 9.0 | 15.0 | 0.00 | 0.00 | 0.00 | 59 | 1017.3 |
| 20260831140031 | 85 | 202 | 9.0 | 13.0 | 0.00 | 0.00 | 0.00 | 60 | 1017.4 |
| 20260831135531 | 84 | 204 | 9.0 | 12.0 | 0.00 | 0.00 | 0.00 | 62 | 1017.4 |
| 20260831135030 | 84 | 189 | 9.0 | 11.0 | 0.00 | 0.00 | 0.00 | 63 | 1017.3 |
| 20260831134530 | 83 | 202 | 7.0 | 11.0 | 0.00 | 0.00 | 0.00 | 64 | 1017.3 |
| 20260831134030 | 83 | 206 | 10.0 | 11.0 | 0.00 | 0.00 | 0.00 | 64 | 1017.2 |
| 20260831133505 | 82 | 196 | 11.0 | 11.0 | 0.00 | 0.00 | 0.00 | 65 | 1017.2 |
| 20260831133001 | 82 | 210 | 4.0 | 7.0 | 0.00 | 0.00 | 0.00 | 66 | 1017.2 |
| 20260831132505 | 81 | 205 | 6.0 | 7.0 | 0.00 | 0.00 | 0.00 | 67 | 1017.2 |
| 20260831132001 | 81 | 154 | 3.0 | 7.0 | 0.00 | 0.00 | 0.00 | 68 | 1017.1 |
| 20260831131500 | 80 | 215 | 6.0 | 7.0 | 0.00 | 0.00 | 0.00 | 68 | 1017.1 |
| 20260831131000 | 80 | 188 | 4.0 | 5.0 | 0.00 | 0.00 | 0.00 | 69 | 1017.0 |
| 20260831130500 | 80 | 206 | 4.0 | 5.0 | 0.00 | 0.00 | 0.00 | 69 | 1016.8 |
| 20260831125500 | 79 | 175 | 3.0 | 5.0 | 0.00 | 0.00 | 0.00 | 71 | 1016.6 |
| 20260831125000 | 78 | 168 | 4.0 | 5.0 | 0.00 | 0.00 | 0.00 | 72 | 1016.5 |
| 20260831124500 | 78 | 141 | 4.0 | 5.0 | 0.00 | 0.00 | 0.00 | 72 | 1016.4 |
| 20260831123959 | 78 | 141 | 3.0 | 5.0 | 0.00 | 0.00 | 0.00 | 73 | 1016.3 |
| 20260831123500 | 78 | 162 | 5.0 | 6.0 | 0.00 | 0.00 | 0.00 | 72 | 1016.3 |
| 20260831122530 | 77 | 144 | 5.0 | 6.0 | 0.00 | 0.00 | 0.00 | 72 | 1016.1 |
| 20260831122000 | 77 | 139 | 4.0 | 6.0 | 0.00 | 0.00 | 0.00 | 72 | 1016.1 |